Other Public Products
Issued by NWS Grand Forks, ND

Home | Current Version | Previous Version | Graphics & Text | Print | Product List | Glossary On
Versions: 1 2 3 4 5 6 7 8 9 10 11 12 13 14 15 16 17 18 19 20 21 22 23 24 25 26 27 28 29 30 31 32 33 34 35 36 37 38 39 40 41 42 43 44 45 46 47 48 49 50
000
FPUS83 KFGF 200910
OPUFGF
PRAIRIE TO PINES WEATHER ROUNDUP
NATIONAL WEATHER SERVICE EASTERN NORTH DAKOTA/GRAND FORKS ND
400 AM CDT FRI OCT 20 2017

 **SATELLITE DATA USED TO AUGMENT SKY COVER AT AUTOMATED STATIONS**
 *****  WEATHER ACROSS EASTERN NORTH DAKOTA  *****

CITY           SKY/WX    TMP DP  RH WIND       PRES   REMARKS
GRAND FORKS    FAIR      47  42  83 SE8       29.63F
GRAND FORKS AF FAIR      43  40  88 S7        29.63F
GRAND CITY NWS NOT AVBL
BUXTON         NOT AVBL
DEVILS LAKE    FAIR      47  42  83 SE9       29.60F
FARGO          FAIR      57  48  72 S13       29.66F
WAHPETON ARPT  NOT AVBL
$$

 *****  WEATHER ACROSS CENTRAL AND WESTERN NORTH DAKOTA  *****

CITY           SKY/WX    TMP DP  RH WIND       PRES   REMARKS
JAMESTOWN      FAIR      50  44  80 S12       29.61F
BISMARCK       FAIR      44  39  82 E10       29.55F
MINOT          FAIR      44  35  70 CALM      29.51F
MINOT AFB      FAIR      41  33  74 SE8       29.50F
GARRISON         N/A     43  36  76 E6        29.51F
WILLISTON      FAIR      40  31  70 N5        29.47F
DICKINSON      FAIR      45  32  60 S12       29.48F
HETTINGER      FAIR      49  28  44 VRB3      29.54F
$$

 *****  OTHER OBSERVATIONS NORTHEAST NORTH DAKOTA  *****

CITY           SKY/WX    TMP DP  RH WIND       PRES   REMARKS
WALHALLA       FAIR     N/A N/A N/A SE6       29.61F
LANGDON        FAIR      43  37  81 S8        29.61F
CAVALIER       FAIR      41  37  87 CALM      29.62F
GRAFTON        FAIR      41  37  87 SE9       29.65F
CANDO          FAIR      36  36 100 E7        29.61S
FORT TOTTEN    NOT AVBL
ROLLA          FAIR      39  30  70 S6        29.59F
RUGBY            N/A     41  37  87 E7        29.55F
 ***** THE ABOVE OBSERVATIONS ARE NON NWS ARE NOT QUALITY
        CONTROLLED AND MAY MIS-REPORT RAIN FOR SNOW...
$$

 *****  OTHER OBSERVATIONS SOUTHEAST NORTH DAKOTA *****

CITY           SKY/WX    TMP DP  RH WIND       PRES   REMARKS
COOPERSTOWN    FAIR      45  43  93 SE8       29.63F
VALLEY CITY    FAIR      54  50  87 S13       29.65F
OAKES          NOT AVBL
GWINNER        SUNNY     57  50  77 S13G18    29.66F
SHEYENNE NWR     N/A     47  47 100 SE5       29.95S
BUFFALO        NOT AVBL
WYNDMERE       NOT AVBL
 ***** THE ABOVE OBSERVATIONS ARE NON NWS ARE NOT QUALITY
       CONTROLLED AND MAY MIS-REPORT RAIN FOR SNOW...
$$

  *****  WEATHER ACROSS NORTHERN MINNESOTA  *****

CITY           SKY/WX    TMP DP  RH WIND       PRES   REMARKS
FLAG ISLAND    FAIR      54  45  71 SE6       29.69F
WARROAD        FAIR      50  43  76 S5        29.69F
ROSEAU         FAIR      48  43  81 S6        29.69S
HALLOCK        FAIR      46  39  76 SE9       29.64F
THF RVR FALLS  FAIR      51  45  79 E8        29.69F
HALSTAD        NOT AVBL
FOSSTON        FAIR      55  45  67 SE9       29.71F
BAUDETTE       FAIR      47  40  76 SE6       29.72F
WASKISH        FAIR      52  45  76 SE5       29.74F
CROOKSTON      FAIR      54  46  76 S9        29.67F
$$
  *****  WEATHER ACROSS CENTRAL AND WEST MINNESOTA  *****

CITY           SKY/WX    TMP DP  RH WIND       PRES   REMARKS
BEMIDJI        FAIR      54  44  71 S8        29.75S
PARK RAPIDS    FAIR      49  43  80 S8        29.77F
WADENA         FAIR      52  46  82 S3        29.77F
DETROIT LAKES  FAIR      52  46  82 SE8       29.74F
MOORHEAD       FAIR      55  48  76 S15       29.68F
FERGUS FALLS   FAIR      55  48  76 SE14      29.74F
ELBOW LAKE     FAIR      52  49  87 E10       29.76F
MORRIS MN      FAIR      52  48  87 SE10      29.76F
STAPLES        FAIR      52  45  76 S8        29.79F
WHEATON        FAIR      52  46  82 SE10      29.74S
$$
  *****  WEATHER ELSEWHERE ACROSS MINNESOTA  *****

CITY           SKY/WX    TMP DP  RH WIND       PRES   REMARKS
DULUTH         FAIR      53  42  66 SW9       29.86F
INTRNTL FALLS  FAIR      44  36  73 SE5       29.77F
ELY            FAIR      52  37  58 S3        29.84F
CLOQUET        FAIR      54  39  58 S7        29.86F
BRAINERD       FAIR      53  47  79 S10       29.82F
HIBBING        FAIR      34  32  92 CALM      29.84S
ALEXANDRIA     FAIR      57  50  77 S13       29.80F
SAINT CLOUD    FAIR      49  47  93 SE8       29.85F
MINNEAPOLIS    FAIR      55  50  83 SE6       29.90F
$$

  *****  WEATHER ACROSS SOUTH DAKOTA  *****

CITY           SKY/WX    TMP DP  RH WIND       PRES   REMARKS
SIOUX FALLS    FAIR      58  50  75 S13       29.84F
BROOKINGS      FAIR      56  49  77 S12       29.81F
WATERTOWN      FAIR      53  50  89 S10       29.76F
HURON          FAIR      57  49  74 S13       29.73F
SISSETON       NOT AVBL
ABERDEEN       FAIR      56  49  77 S16       29.67F
MITCHELL       FAIR      57  48  72 S14       29.76F
PIERRE         FAIR      60  47  61 SE6       29.63F
MOBRIDGE       FAIR      59  49  69 S12       29.57F
RAPID CITY     FAIR      52  26  36 CALM      29.63F
$$

  *****  SOME WEATHER IN NEARBY STATES *****

CITY           SKY/WX    TMP DP  RH WIND       PRES   REMARKS
GLASGOW MT     FAIR      49  30  48 SE15      29.40F
GREAT FALLS MT FAIR      57  17  21 SW10      29.40F
CHEYENNE WY    FAIR      46  30  53 W6        29.84F
SCOTTSBLUFF NE FAIR      45  32  60 E6        29.75F
OMAHA NE       MOCLDY    56  49  77 S12       29.98S
DES MOINES IA  FAIR      59  52  77 S10       30.03S
DAVENPORT IA   FAIR      57  49  74 S6        30.11F
CHICAGO IL     FAIR      53  43  68 CALM      30.14S
EAU CLAIRE WI  FAIR      43  38  82 CALM      29.96F
LA CROSSE WI   FAIR      57  48  72 S9        30.00F
$$

  *****  SOME NATIONAL WEATHER *****

CITY           SKY/WX    TMP DP  RH WIND       PRES   REMARKS
LA GUARDIA NY  FAIR      63  47  55 W13       30.08R
RALEIGH NC     FAIR      47  47 100 CALM      30.21S
ATLANTA GA     FAIR      50  46  86 N3        30.25S
NEW ORLEANS LA MOCLDY    71  66  84 E7        30.12F
OKLAHOMA CITY  MOCLDY    58  52  80 SE12      30.06F
ALBUQUERQUE NM MOCLDY    52  49  89 SE7       30.05F
SALT LAKE CITY MOCLDY    64  40  41 SE17      29.68F
LOS ANGELES CA FAIR      64  61  90 E6        29.91S
BOISE ID       FAIR      60  17  18 S14G23    29.49R
SEATTLE WA     CLOUDY    49  46  90 S13       29.52F
$$

*** WEATHER ACROSS MANITOBA...SASKATCHEWAN AND ONTARIO ***
                ***ONTARIO***

CITY           SKY/WX    TMP DP  RH WIND       PRES   REMARKS
GERALDTON      CLEAR     34  28  80 E3        29.89F
THUNDER BAY    CLEAR     34  32  93 W2        29.88S
SIOUX LOOKOUT  CLEAR     46  37  71 SE7       29.75S
TORONTO        CLEAR     50  36  57 NW6       30.15R
BIG TROUT LK   MOCLDY    34  34 100 E6        29.87R
PICKLE LAKE    NOT AVBL
DRYDEN         CLEAR     52  39  62 S13       29.74F
KENORA         PTCLDY    50  39  66 S9        29.71F
$$
                *** MANITOBA***

CITY           SKY/WX    TMP DP  RH WIND       PRES   REMARKS
BRANDON        MOCLDY    45  34  65 E6        29.55F
DAUPHIN        CLEAR     45  34  65 SE6       29.52F
ISLAND LAKE    PTCLDY    37  34  87 E9        29.70F
PILOT MOUND      N/A     39  34  81 SE8         N/A
THE PAS        MOCLDY    39  36  87 NE9       29.56F
THOMPSON       CLOUDY    34  32  93 E5        29.72R
WINNIPEG       CLEAR     46  39  76 S8        29.61F
LYNN LAKE      CLOUDY    32  32 100 SE9       29.66F WCI  24
CHURCHILL      CLOUDY    32  28  86 SE9       29.94R WCI  24
GILLAM         CLOUDY    32  32 100 E7        29.83S
$$
                ***SASKATCHEWAN***

CITY           SKY/WX    TMP DP  RH WIND       PRES   REMARKS
ESTEVAN        PTCLDY    45  30  57 E6        29.48F
KINDERSLEY     MOCLDY    45  34  65 SE5       29.36F
LLOYDMINSTER   CLOUDY    45  37  76 S10       29.28F
PRINCE ALBERT  CLOUDY    39  32  75 E8        29.46F
REGINA         PTCLDY    43  28  56 SE12      29.43F
YORKTON        CLEAR     41  32  70 S5        29.48F



USA.gov is the U.S. government's official web portal to all federal, state and local government web resources and services.